User: anonymous   Login
Location: Unspecified
(0.0000°N, 0.0000°E)
Time: 20:05:52
(UTC+00:00)
Language:

STARLINK-4070 - Orbit

View from above orbital plane
View from above orbital plane
View from above satellite
View from above satellite

Ground track
Ground track

The orbit is defined by the following mean orbital elements,

1 52664U          26145.38618980 +.00000000 +00000-0 +64861-5 0 00007
2 52664  53.2114 169.8166 0001281 112.5905 247.5223 15.08841343    05
Epoch (UTC): 25 May 2026 09:16:06
Eccentricity: 0.0001281
inclination: 53.2114°
perigee height: 539 km
apogee height: 541 km
right ascension of ascending node: 169.8166°
argument of perigee: 112.5905°
revolutions per day: 15.08841343
mean anomaly at epoch: 247.5223°

The dashed part of the orbit path shows where the satellite is in the earth's shadow,  

DLR